Location: ???? ???
(30.7907°N, 60.5605°E)
Time: 15:21:25
(UTC+00:00)

Daily predictions for brighter satellites

Satellite Brightness Start Highest point End
(mag) Time Altitude Azimuth Time Altitude Azimuth Time Altitude Azimuth
Meteor 1-16 Rocket 4.3 13:36:12 10° S 13:42:01 81° E 13:47:40 10° N
USA 229 DEB 4.4 13:35:33 10° NNW 13:42:25 39° NE 13:49:32 10° ESE
USA 229 4.4 13:35:40 10° NNW 13:42:31 38° NE 13:49:36 10° ESE
USA 281 3.5 13:37:15 10° SSE 13:43:48 78° WSW 13:50:22 10° NNW
Aureole 1 Rocket 3.2 13:42:30 10° NNE 13:45:02 25° ENE 13:47:42 10° SE
SWIFT 4.5 13:43:06 10° SSW 13:45:53 17° S 13:48:39 10° SE
NOAA 12 4.3 13:41:57 10° S 13:47:12 82° WSW 13:52:31 10° NNW
Cosmos 2228 3.5 13:52:25 10° SSE 13:56:18 37° E 14:00:12 10° NNE
FengYun 1-2 T 4.3 13:53:47 10° SSE 13:59:26 86° ENE 14:05:07 10° NNW
Cosmos 1602 Rocket 3.5 13:55:56 10° N 14:00:25 75° E 14:04:52 10° S
Cosmos 1626 Rocket 3.8 13:56:18 10° N 14:00:44 77° W 14:05:05 10° S
Cosmos 1939 Rocket 3.1 13:57:08 10° SSE 14:01:01 45° ENE 14:04:51 10° N
BREEZE-M DEB (TANK) 3.8 13:57:55 10° SSW 14:01:13 21° SE 14:02:39 14° E
Cosmos 1356 Rocket 4.3 13:57:26 10° SSW 14:01:30 53° W 14:05:40 10° N
IRS-1C Rocket 4.2 13:56:49 10° SSE 14:01:54 52° ENE 14:07:00 10° N
SL-27 R/B 2.5 13:58:37 10° NNW 14:02:09 81° WSW 14:05:36 10° SSE
Cosmos 1655 Rocket 4.1 13:56:21 10° N 14:02:46 86° E 14:09:10 10° S
Cosmos 1954 Rocket 4.0 13:59:24 10° NNW 14:04:36 90° W 14:09:50 10° SSE
MOS 1 Rocket 4.3 14:02:30 10° NE 14:06:20 25° E 14:10:21 10° SSE
Cosmos 1110 Rocket 4.1 14:01:24 10° S 14:06:32 54° ESE 14:11:38 10° NNE
Okean O Rocket 3.4 14:04:06 10° SSW 14:08:09 36° W 14:12:12 10° NNW
Cosmos 1908 4.1 14:06:12 10° SSW 14:09:54 52° W 14:13:39 10° N
CZ-4 R/B 2.1 14:06:40 10° SE 14:10:08 29° ENE 14:13:33 10° NNE
Hubble Space Telescope 1.0 14:06:46 10° W 14:10:51 64° S 14:13:53 17° ESE
CZ-2D R/B 3.5 14:08:47 10° SSE 14:12:25 43° ENE 14:16:03 10° N
BREEZE-M DEB (TANK) 4.0 14:10:21 10° S 14:13:19 35° ESE 14:20:31 10° NE
BREEZE-M DEB (TANK) 4.2 14:12:05 10° W 14:13:51 24° SW 14:16:39 10° SSE
Cosmos 1703 3.2 14:11:54 10° N 14:15:50 81° E 14:19:45 10° S
Cosmos 1741 Rocket 4.5 14:10:59 10° N 14:15:50 37° ENE 14:20:38 10° SE
NOSS 3-1 (C) 4.2 14:10:11 10° NNW 14:18:17 83° ENE 14:27:16 10° SSE
H-2A R/B 3.1 14:14:32 10° ESE 14:18:43 24° ENE 14:22:58 10° NNE
ARGOS 4.5 14:19:12 18° ENE 14:19:40 18° ENE 14:23:13 10° NNE
FALCON 9 DEB 4.1 14:20:30 10° S 14:23:12 25° SE 14:23:27 25° ESE
SL-8 R/B 3.7 14:19:38 10° NW 14:24:27 81° SW 14:28:53 12° SE
CSL-04 Rocket 4.5 14:20:37 10° SE 14:25:21 30° ENE 14:30:06 10° N
SeaSat 1 3.5 14:26:10 22° ENE 14:27:09 24° ENE 14:31:01 10° N
COSMO-SKYMED 1 3.9 14:23:30 10° N 14:27:36 42° WNW 14:31:42 10° SW
Okean-O 2.6 14:24:09 10° SSE 14:28:30 59° ENE 14:32:51 10° N
Aureole 3 3.5 14:25:31 10° SSE 14:29:30 41° E 14:31:57 17° NNE
CZ-2C R/B 4.5 14:35:50 14° SE 14:35:50 14° SE 14:36:51 10° SE
Atlas Centaur 2 4.0 14:26:54 10° SSW 14:33:55 29° SSE 14:37:36 21° ESE
Cosmos 1656 4.4 14:29:38 10° SSE 14:34:15 28° ESE 14:35:06 27° E
OAO 3 Rocket 3.4 14:30:12 10° W 14:34:53 58° N 14:37:08 28° ENE
Cosmos 1850 Rocket 4.0 14:30:28 10° N 14:35:44 64° ENE 14:41:00 10° SSE
IRS-P2 Rocket 4.5 14:34:47 10° SSE 14:39:59 84° ENE 14:45:13 10° NNW
YAOGAN 1 2.5 14:36:18 10° SSE 14:40:33 62° ENE 14:44:50 10° N
CZ-2C R/B 3.3 14:34:56 10° SSE 14:40:36 60° ENE 14:46:19 10° N
USA 276 4.4 14:39:25 10° N 14:40:32 15° N 14:40:32 15° N
X-37B 3.6 14:41:22 10° WSW 14:42:52 13° SW 14:44:20 10° SSW
Meteor 2-21 Rocket 4.3 14:38:05 10° N 14:44:16 75° E 14:50:22 10° S
Meteor 2-8 Rocket 4.3 14:38:55 10° S 14:44:53 65° E 14:50:56 10° NNE
Cosmos 1300 3.0 14:41:26 10° SSW 14:45:12 66° W 14:48:59 10° N
BREEZE-M DEB (TANK) 4.3 14:42:20 10° SSW 14:46:10 22° SSE 14:46:10 22° SSE
COSMOS 2487 2.6 14:45:00 10° N 14:47:49 51° NNE 14:47:49 51° NNE
Cosmos 1825 Rocket 3.6 14:44:31 10° N 14:48:59 80° W 14:53:23 10° S
NOAA 15 4.5 14:44:12 10° SSE 14:49:28 80° ENE 14:54:48 10° N
SJ-11-01 4.4 14:49:23 38° ESE 14:50:41 49° ENE 14:55:11 10° N
Cosmos 1400 Rocket 2.7 14:46:49 10° S 14:50:54 70° E 14:53:49 19° NNE
Cosmos 2297 Rocket 4.3 14:48:17 10° NNE 14:48:28 10° NNE 14:48:28 10° NNE
CSL-04 Debris 4.1 14:51:13 10° SSE 14:56:32 64° ENE 15:01:54 10° N
Milstar 3 2.9 14:53:18 10° WSW 14:59:54 66° S 15:02:43 38° ESE
GEOS 3 Rocket 3.6 15:08:44 34° SSE 15:11:05 82° WSW 15:16:27 10° NNW
S3M 3.8 15:05:44 10° S 15:11:43 62° E 15:17:44 10° NNE
Gbstr 26 Del rocket 4.4 15:07:53 10° NW 15:14:56 58° NE 15:16:29 50° E
Cosmos 44 3.9 15:13:06 10° SW 15:17:18 47° WNW 15:18:51 33° N
Meteor 2-15 4.3 15:15:28 10° S 15:21:36 85° E 15:27:46 10° N
Delta 2 Rocket 4.4 15:16:21 10° W 15:21:51 53° N 15:22:14 52° N
OAO 2 Rocket 4.4 15:25:41 10° SW 15:28:48 35° SSW 15:28:48 35° SSW
CZ-4 R/B 4.4 15:42:58 10° SW 15:45:07 14° W 15:47:17 10° WNW
USA 215 4.4 15:52:43 31° N 15:52:43 31° N 15:56:34 10° NNW
Hubble Space Telescope 3.4 15:47:56 10° W 15:49:13 18° WSW 15:49:13 18° WSW
H-2A R/B 3.6 15:54:35 17° SSW 15:57:52 33° W 16:02:41 10° NW
ARGOS 4.3 16:00:44 39° WNW 16:00:44 39° WNW 16:04:41 10° NNW
SeaSat 1 4.2 16:05:59 28° WNW 16:05:59 28° WNW 16:08:55 10° NW
Atlas Centaur 2 3.9 16:15:12 10° WSW 16:20:13 38° SW 16:20:13 38° SW
Cosmos 2344 3.5 23:23:39 79° E 23:23:39 79° E 23:30:53 10° NNE
NOSS 3-2 (C) 4.0 23:44:28 39° SSE 23:45:51 47° ESE 23:51:29 10° NE
ADEOS Rocket 3.6 23:45:03 10° SE 23:50:27 48° ENE 23:55:42 10° N
H-2A R/B 2.9 23:50:36 10° SSE 23:54:20 51° ESE 23:54:20 51° ESE
CZ-2C R/B 3.5 23:58:28 17° ENE 23:58:28 17° ENE 23:59:26 10° ENE
